Weather History for New Bern, NC

Change the Weather History Date:

Tuesday, March 19, 2013

  Actual Average Record
Temperature  
Mean Temperature 62 °F 54 °F  
Max Temperature 70 °F 66 °F 83 °F (1974)
Min Temperature 53 °F 43 °F 25 °F (2007)
Degree Days  
Heating Degree Days 3 11  
Month to date heating degree days 266 257  
Since 1 July heating degree days 2192 2403  
Cooling Degree Days 0 0  
Month to date cooling degree days 1 0  
Year to date cooling degree days 8 3  
Growing Degree Days 12 (Base 50)    
Moisture  
Dew Point 49 °F    
Average Humidity 63    
Maximum Humidity 93    
Minimum Humidity 32    
Precipitation  
Precipitation 0.08 in 0.14 in 0.90 in (1984)
Month to date precipitation 1.01 2.77  
Year to date precipitation 7.15 10.45  
Snow  
Snow 0.00 in - - ()
Month to date snowfall 0.0  
Since 1 July snowfall T  
Snow Depth 0.00 in    
Sea Level Pressure  
Sea Level Pressure 29.86 in    
Wind  
Wind Speed 8 mph (WNW)    
Max Wind Speed 18 mph    
Max Gust Speed 24 mph    
Visibility 8 miles    
Events Rain    
T = Trace of Precipitation, MM = Missing Value Source: NWS Daily Summary

Daily Weather History Graph

Daily Weather History Graph

Search for Another Location

Airport:

Trip Planner

Search our weather history database for the weather conditions in past years. The results will help you decide how hot, cold, wet, or windy it might be!

Date:

Astronomy

Mar. 19, 2013 Rise Set
Actual Time 7:12 AM EDT 7:19 PM EDT
Civil Twilight 6:47 AM EDT 7:44 PM EDT
Nautical Twilight 6:18 AM EDT 8:14 PM EDT
Astronomical Twilight 5:48 AM EDT 8:43 PM EDT
Moon 12:13 PM EDT (3/19) 1:52 AM EDT (3/19)
Length of Visible Light 12h 56m
Length of Day
12h 06m
Waxing Crescent, 49% of the Moon is Illuminated
Mar 19
Waxing Crescent
Mar 19
First Quarter
Mar 27
Full
Apr 3
Last Quarter
Apr 10
New

Hourly Weather History & Observations

Time (EDT) Temp. Dew Point Humidity Pressure Visibility Wind Dir Wind Speed Gust Speed Precip Events Conditions
12:15 AM 55.4 °F 53.6 °F 94% 29.91 in 10.0 mi Calm Calm - N/A   Overcast
12:35 AM 55.4 °F 53.6 °F 94% 29.91 in 10.0 mi Calm Calm - 0.00 in   Overcast
12:54 AM 55.9 °F 53.1 °F 90% 29.91 in 10.0 mi North 3.5 mph - 0.00 in   Overcast
1:54 AM 55.9 °F 52.0 °F 87% 29.87 in 10.0 mi Calm Calm - N/A   Overcast
2:06 AM 55.4 °F 51.8 °F 88% 29.86 in 10.0 mi Calm Calm - N/A   Overcast
2:54 AM 55.9 °F 52.0 °F 87% 29.83 in 10.0 mi SSE 6.9 mph - 0.01 in Rain Rain
3:17 AM 55.4 °F 53.6 °F 94% 29.79 in 10.0 mi SE 9.2 mph - 0.04 in Rain Rain
3:45 AM 57.2 °F 55.4 °F 94% 29.78 in 10.0 mi ENE 4.6 mph - 0.04 in Rain Light Rain
3:54 AM 57.9 °F 55.0 °F 90% 29.77 in 10.0 mi Variable 4.6 mph - 0.04 in Rain Light Rain
4:54 AM 59.0 °F 55.9 °F 90% 29.77 in 10.0 mi NW 8.1 mph - 0.02 in   Mostly Cloudy
5:09 AM 57.2 °F 55.4 °F 94% 29.79 in 10.0 mi WNW 8.1 mph - N/A   Mostly Cloudy
5:27 AM 57.2 °F 55.4 °F 94% 29.79 in 10.0 mi NW 3.5 mph - N/A   Mostly Cloudy
5:42 AM 57.2 °F 55.4 °F 94% 29.79 in 10.0 mi Calm Calm - N/A   Scattered Clouds
5:54 AM 57.0 °F 54.0 °F 89% 29.79 in 10.0 mi Calm Calm - N/A   Partly Cloudy
6:54 AM 55.9 °F 54.0 °F 93% 29.83 in 10.0 mi WNW 8.1 mph - 0.01 in   Scattered Clouds
7:03 AM 55.4 °F 53.6 °F 94% 29.83 in 2.0 mi WNW 6.9 mph - N/A   Mostly Cloudy
7:37 AM 53.6 °F 51.8 °F 94% 29.85 in 1.0 mi West 8.1 mph - N/A   Overcast
8:01 AM 53.6 °F 51.8 °F 94% 29.85 in 2.0 mi West 4.6 mph - N/A   Overcast
8:09 AM 53.6 °F 51.8 °F 94% 29.85 in - WSW 6.9 mph - N/A   Overcast
8:21 AM 53.6 °F 51.8 °F 94% 29.86 in - West 6.9 mph - N/A   Overcast
8:40 AM 53.6 °F 51.8 °F 94% 29.86 in 3.0 mi West 8.1 mph - N/A   Overcast
8:54 AM 54.0 °F 52.0 °F 93% 29.86 in 2.0 mi WNW 8.1 mph - N/A   Overcast
9:29 AM 53.6 °F 50.0 °F 88% 29.87 in 4.0 mi West 9.2 mph - N/A   Overcast
9:54 AM 54.0 °F 50.0 °F 86% 29.87 in 4.0 mi West 10.4 mph - N/A   Overcast
10:36 AM 57.2 °F 51.8 °F 82% 29.87 in 7.0 mi North - - N/A   Mostly Cloudy
10:54 AM 57.0 °F 50.0 °F 77% 29.88 in 7.0 mi WNW 12.7 mph - 0.01 in   Overcast
11:25 AM 59.0 °F 50.0 °F 72% 29.88 in - WNW 13.8 mph 19.6 mph N/A   Scattered Clouds
11:54 AM 57.9 °F 48.9 °F 72% 29.88 in 10.0 mi WNW 12.7 mph - N/A   Partly Cloudy
12:38 PM 57.2 °F 48.2 °F 72% 29.89 in 10.0 mi WNW 12.7 mph - N/A   Mostly Cloudy
12:54 PM 59.0 °F 48.0 °F 67% 29.90 in 10.0 mi NNW 12.7 mph - N/A   Scattered Clouds
2:54 PM 66.9 °F 46.0 °F 47% 29.84 in 10.0 mi NW 11.5 mph 17.3 mph N/A   Clear
3:54 PM 70.0 °F 43.0 °F 38% 29.83 in 10.0 mi West 11.5 mph - N/A   Clear
4:54 PM 69.1 °F 39.0 °F 33% 29.84 in 10.0 mi NW 10.4 mph 20.7 mph N/A   Clear
5:54 PM 69.1 °F 39.9 °F 35% 29.85 in 10.0 mi West 6.9 mph - N/A   Clear
6:54 PM 64.9 °F 39.9 °F 40% 29.88 in 10.0 mi West 5.8 mph - N/A   Clear
7:54 PM 61.0 °F 37.9 °F 42% 29.90 in 10.0 mi West 3.5 mph - N/A   Clear
8:54 PM 54.0 °F 41.0 °F 62% 29.93 in 10.0 mi SW 3.5 mph - N/A   Clear
9:54 PM 57.9 °F 34.0 °F 41% 29.96 in 10.0 mi West 6.9 mph - N/A   Clear
10:54 PM 57.0 °F 28.9 °F 34% 29.97 in 10.0 mi West 5.8 mph - N/A   Clear
11:54 PM 55.9 °F 26.1 °F 32% 29.98 in 10.0 mi NW 8.1 mph - N/A   Clear